This is the latest recevied weather packets stored in our database for station/object G4KVI. If no packets are shown the sender has not sent any weather packets the latest 10 day(s).
| Time | Temp. | Humidity | Pressure | Rain* | Wind** | Luminosity | Snow |
|---|---|---|---|---|---|---|---|
| 1777659604 | 15.56° C | 75% | 1021.6 hPa | 0 mm | - | 59 W/m² | - |
| 1777659304 | 15.56° C | 75% | 1021.6 hPa | 0 mm | - | 62 W/m² | - |
| 1777659004 | 15.56° C | 75% | 1021.5 hPa | 0 mm | - | 50 W/m² | - |
| 1777658704 | 15.56° C | 75% | 1021.7 hPa | 0 mm | - | 67 W/m² | - |
| 1777658404 | 15.56° C | 74% | 1021.4 hPa | 0 mm | - | 85 W/m² | - |
| 1777658104 | 15.56° C | 75% | 1021.5 hPa | 0 mm | - | 83 W/m² | - |
| 1777657804 | 15.56° C | 75% | 1021.3 hPa | 0 mm | - | 82 W/m² | - |
| 1777657504 | 15.56° C | 75% | 1021.5 hPa | 0 mm | - | 93 W/m² | - |
| 1777657204 | 15.56° C | 75% | 1021.5 hPa | 0 mm | - | 93 W/m² | - |
| 1777656904 | 15.56° C | 74% | 1021.5 hPa | 0 mm | - | 68 W/m² | - |
| 1777656604 | 16.11° C | 74% | 1021.5 hPa | 0 mm | - | 108 W/m² | - |
| 1777656304 | 16.11° C | 74% | 1021.6 hPa | 0 mm | - | 108 W/m² | - |
| 1777656004 | 15.56° C | 74% | 1021.6 hPa | 0 mm | - | 130 W/m² | - |
| 1777655704 | 16.11° C | 74% | 1021.6 hPa | 0 mm | - | 140 W/m² | - |
| 1777655404 | 16.11° C | 73% | 1021.5 hPa | 0 mm | - | 158 W/m² | - |
| 1777655104 | 16.11° C | 72% | 1021.6 hPa | 0 mm | - | 152 W/m² | - |
| 1777654804 | 16.11° C | 73% | 1021.5 hPa | 0.25 mm | - | 146 W/m² | - |
| 1777654504 | 16.11° C | 72% | 1021.6 hPa | 0.25 mm | - | 144 W/m² | - |
| 1777654204 | 16.11° C | 73% | 1021.6 hPa | 0.25 mm | - | 222 W/m² | - |
| 1777653904 | 15.56° C | 74% | 1021.7 hPa | 0.25 mm | - | 269 W/m² | - |
| 1777653604 | 15.56° C | 75% | 1021.7 hPa | 0.25 mm | - | 269 W/m² | - |
| 1777653304 | 15.56° C | 74% | 1021.7 hPa | 0.25 mm | - | 158 W/m² | - |
| 1777653004 | 15.56° C | 75% | 1021.7 hPa | 0.25 mm | - | 421 W/m² | - |
| 1777652704 | 15.56° C | 75% | 1021.8 hPa | 0.25 mm | - | 421 W/m² | - |
| 1777652404 | 15.56° C | 75% | 1021.9 hPa | 0.25 mm | - | 421 W/m² | - |
* Rain latest hour (hover to see other rain measurements)
** Current wind speed in m/s (hover to see current wind gust speed)